TimeCST,TemperatureF,Dew PointF,Humidity,Sea Level PressureIn,VisibilityMPH,Wind Direction,Wind SpeedMPH,Gust SpeedMPH,PrecipitationIn,Events,Conditions,WindDirDegrees,DateUTC
12:15 AM,41.9,41.2,97,29.87,5.0,SE,17.3,24.2,0.03,Rain,Light Rain,140,2013-03-09 06:15:00
12:35 AM,41.9,41.0,97,29.85,5.0,SE,17.3,24.2,0.07,Rain,Light Rain,130,2013-03-09 06:35:00
12:55 AM,42.1,41.0,96,29.86,7.0,SE,15.0,19.6,0.07,Thunderstorm,Overcast,140,2013-03-09 06:55:00
1:15 AM,42.3,41.0,95,29.86,7.0,SE,12.7,-,N/A,Rain-Thunderstorm,Light Thunderstorms and Rain,140,2013-03-09 07:15:00
1:35 AM,42.1,41.0,96,29.85,5.0,SE,12.7,-,0.01,Rain-Thunderstorm,Light Thunderstorms and Rain,140,2013-03-09 07:35:00
1:55 AM,42.8,41.4,95,29.84,7.0,SE,17.3,-,0.01,,Overcast,140,2013-03-09 07:55:00
2:15 AM,43.2,41.7,95,29.83,7.0,SE,17.3,23.0,N/A,Thunderstorm,Overcast,140,2013-03-09 08:15:00
2:35 AM,43.0,41.9,96,29.83,7.0,SE,15.0,25.3,N/A,Thunderstorm,Overcast,140,2013-03-09 08:35:00
2:55 AM,42.8,41.9,97,29.82,5.0,SE,12.7,-,N/A,Rain-Thunderstorm,Light Thunderstorms and Rain,140,2013-03-09 08:55:00
3:15 AM,43.0,42.3,97,29.81,5.0,SE,10.4,-,0.01,Rain,Light Rain,140,2013-03-09 09:15:00
3:35 AM,42.8,42.3,98,29.80,4.0,SE,11.5,-,0.04,Rain-Thunderstorm,Thunderstorms and Rain,140,2013-03-09 09:35:00
3:55 AM,43.2,43.0,99,29.79,2.5,SE,12.7,-,0.19,Rain,Heavy Rain,140,2013-03-09 09:55:00
4:15 AM,44.2,43.7,98,29.78,7.0,ESE,10.4,-,0.03,Thunderstorm,Overcast,120,2013-03-09 10:15:00
4:35 AM,43.7,42.6,96,29.77,7.0,ESE,12.7,-,0.03,,Overcast,120,2013-03-09 10:35:00
4:55 AM,42.8,42.3,98,29.75,5.0,ESE,15.0,18.4,0.04,Thunderstorm,Unknown,120,2013-03-09 10:55:00
5:15 AM,42.8,42.4,99,29.75,5.0,SE,12.7,-,N/A,,Overcast,130,2013-03-09 11:15:00
5:35 AM,42.8,42.3,98,29.74,5.0,ESE,12.7,-,N/A,,Overcast,120,2013-03-09 11:35:00
5:55 AM,43.3,42.3,96,29.75,7.0,ESE,9.2,-,N/A,,Overcast,110,2013-03-09 11:55:00
6:15 AM,43.2,42.1,96,29.74,7.0,ESE,11.5,-,N/A,,Overcast,110,2013-03-09 12:15:00
6:35 AM,43.0,41.7,95,29.73,7.0,ESE,15.0,-,N/A,,Overcast,120,2013-03-09 12:35:00
6:55 AM,43.2,41.7,95,29.72,7.0,ESE,13.8,-,N/A,,Overcast,120,2013-03-09 12:55:00
7:15 AM,43.3,41.9,95,29.72,7.0,ESE,12.7,19.6,N/A,,Overcast,120,2013-03-09 13:15:00
7:35 AM,43.3,41.9,95,29.70,7.0,ESE,11.5,-,N/A,,Overcast,120,2013-03-09 13:35:00
7:55 AM,43.9,42.1,93,29.70,7.0,ESE,10.4,-,N/A,,Overcast,110,2013-03-09 13:55:00
8:15 AM,43.7,42.1,94,29.69,7.0,ESE,10.4,-,N/A,,Overcast,110,2013-03-09 14:15:00
8:35 AM,44.1,42.3,93,29.68,7.0,ESE,13.8,-,N/A,,Overcast,120,2013-03-09 14:35:00
8:55 AM,44.6,42.3,91,29.69,7.0,ESE,11.5,-,N/A,,Overcast,110,2013-03-09 14:55:00
9:15 AM,44.6,42.3,91,29.69,7.0,ESE,12.7,-,N/A,,Overcast,120,2013-03-09 15:15:00
9:35 AM,44.6,41.9,90,29.69,7.0,ESE,9.2,-,N/A,,Overcast,110,2013-03-09 15:35:00
9:55 AM,45.1,42.1,89,29.68,7.0,East,9.2,-,N/A,,Light Drizzle,100,2013-03-09 15:55:00
10:15 AM,45.5,42.4,89,29.67,7.0,East,5.8,-,N/A,,Overcast,90,2013-03-09 16:15:00
10:35 AM,45.9,42.8,89,29.66,7.0,East,4.6,-,N/A,,Overcast,90,2013-03-09 16:35:00
10:55 AM,46.4,43.0,88,29.67,7.0,East,5.8,-,N/A,,Overcast,90,2013-03-09 16:55:00
11:15 AM,46.9,43.7,88,29.65,7.0,East,5.8,-,N/A,,Overcast,90,2013-03-09 17:15:00
11:35 AM,47.7,44.1,87,29.64,7.0,East,8.1,-,N/A,,Overcast,90,2013-03-09 17:35:00
11:55 AM,48.4,44.8,87,29.64,7.0,East,6.9,-,N/A,,Overcast,100,2013-03-09 17:55:00
12:15 PM,48.9,45.7,89,29.63,7.0,ESE,10.4,-,N/A,,Mostly Cloudy,110,2013-03-09 18:15:00
12:35 PM,49.1,46.4,90,29.62,7.0,East,10.4,-,N/A,,Overcast,100,2013-03-09 18:35:00
12:55 PM,50.9,47.7,89,29.62,7.0,ESE,10.4,16.1,N/A,,Overcast,110,2013-03-09 18:55:00
1:15 PM,51.4,48.9,91,29.60,7.0,ESE,9.2,-,N/A,,Mostly Cloudy,120,2013-03-09 19:15:00
1:35 PM,52.3,50.0,92,29.60,7.0,ESE,8.1,-,N/A,,Mostly Cloudy,110,2013-03-09 19:35:00
1:55 PM,53.1,50.7,92,29.59,7.0,SE,6.9,-,N/A,,Overcast,130,2013-03-09 19:55:00
2:15 PM,53.1,50.9,92,29.58,10.0,ESE,3.5,-,N/A,,Overcast,110,2013-03-09 20:15:00
2:35 PM,53.8,51.1,91,29.58,10.0,Calm,Calm,-,N/A,,Overcast,0,2013-03-09 20:35:00
2:55 PM,55.4,51.8,88,29.60,10.0,South,10.4,-,N/A,,Overcast,170,2013-03-09 20:55:00
3:15 PM,55.2,51.4,87,29.59,10.0,SE,9.2,-,N/A,,Overcast,130,2013-03-09 21:15:00
3:35 PM,54.5,51.4,89,29.58,10.0,ESE,10.4,-,N/A,,Overcast,120,2013-03-09 21:35:00
3:55 PM,54.0,51.3,91,29.57,10.0,ESE,8.1,-,N/A,,Overcast,110,2013-03-09 21:55:00
4:15 PM,55.4,51.6,87,29.56,10.0,ESE,8.1,-,N/A,,Overcast,110,2013-03-09 22:15:00
4:35 PM,55.0,51.8,89,29.57,10.0,ESE,4.6,-,N/A,,Overcast,110,2013-03-09 22:35:00
4:55 PM,54.7,51.6,89,29.57,10.0,ESE,5.8,-,N/A,,Overcast,110,2013-03-09 22:55:00
5:15 PM,54.5,51.4,89,29.57,10.0,Calm,Calm,-,N/A,,Overcast,0,2013-03-09 23:15:00
5:35 PM,54.0,51.3,91,29.59,10.0,ENE,3.5,-,N/A,,Overcast,70,2013-03-09 23:35:00
5:55 PM,54.0,51.1,90,29.60,10.0,Calm,Calm,-,N/A,,Overcast,0,2013-03-09 23:55:00
6:15 PM,52.7,48.9,87,29.63,10.0,NW,21.9,29.9,N/A,,Overcast,310,2013-03-10 00:15:00
6:35 PM,41.4,40.1,95,29.65,10.0,NNW,17.3,26.5,N/A,,Overcast,330,2013-03-10 00:35:00
6:55 PM,40.1,39.0,96,29.66,10.0,North,11.5,25.3,N/A,,Overcast,350,2013-03-10 00:55:00
7:15 PM,39.4,38.5,97,29.67,10.0,North,15.0,20.7,N/A,,Overcast,350,2013-03-10 01:15:00
7:35 PM,38.5,37.4,96,29.68,10.0,NNW,16.1,21.9,N/A,,Overcast,340,2013-03-10 01:35:00
7:55 PM,37.8,36.9,97,29.70,10.0,NNW,16.1,25.3,N/A,,Overcast,340,2013-03-10 01:55:00
8:15 PM,37.4,36.7,97,29.70,4.0,NNW,17.3,24.2,N/A,,Overcast,340,2013-03-10 02:15:00
8:35 PM,36.5,36.5,100,29.72,4.0,NNW,16.1,21.9,N/A,,Overcast,330,2013-03-10 02:35:00
8:55 PM,35.8,35.6,99,29.72,3.0,North,13.8,23.0,N/A,,Light Drizzle,350,2013-03-10 02:55:00
9:15 PM,35.6,35.6,100,29.72,7.0,North,17.3,24.2,N/A,Rain,Light Rain,360,2013-03-10 03:15:00
9:35 PM,35.6,35.2,99,29.74,7.0,NNW,15.0,25.3,N/A,,Drizzle,340,2013-03-10 03:35:00
9:55 PM,35.6,35.1,98,29.75,2.0,NNW,17.3,24.2,0.06,Rain,Light Rain,330,2013-03-10 03:55:00
10:15 PM,35.2,35.1,99,29.75,4.0,NNW,15.0,24.2,0.03,Rain,Rain,340,2013-03-10 04:15:00
10:35 PM,34.9,34.7,99,29.72,3.0,North,13.8,26.5,0.08,Rain,Light Rain,350,2013-03-10 04:35:00
10:55 PM,34.7,34.7,100,29.72,7.0,North,20.7,29.9,0.09,Rain,Light Rain,360,2013-03-10 04:55:00
11:15 PM,34.7,34.2,98,29.74,5.0,North,11.5,26.5,0.01,Rain,Rain,350,2013-03-10 05:15:00
11:35 PM,34.3,34.0,99,29.77,3.0,NNW,15.0,21.9,0.05,Rain,Rain,340,2013-03-10 05:35:00
11:55 PM,33.8,33.8,100,29.73,3.0,North,13.8,25.3,0.09,Rain,Rain,360,2013-03-10 05:55:00